QPF
0.01 0.01 0.01 0.01 0.01 0.01 0.01 0.01 0.01 0.02 0.02 0.02 0.02 0.03 0.04 0.07 0.10 0.09 0.07 0.06 0.04 0.02 0.03 0.03 0.02 0.01 0.01 0.01 0.00 0.00 0.00 0.00 0.00 0.00 0.00 0.00 0.00 0.00 0.00 0.00 0.00 0.00 0.00 0.00
0.01 0.01 0.01 0.01 0.01 0.01 0.01 0.01 0.01 0.03 0.02 0.02 0.02 0.03 0.03 0.04 0.06 0.08 0.06 0.05 0.03 0.03 0.03 0.03 0.02 0.01 0.01 0.01 0.00 0.00 0.00 0.00 0.00 0.00 0.00 0.00 0.00 0.00 0.00 0.00 0.00 0.00 0.00 0.00
0.01 0.02 0.02 0.02 0.01 0.01 0.01 0.02 0.02 0.01 0.01 0.02 0.02 0.04 0.06 0.06 0.07 0.07 0.07 0.06 0.04 0.03 0.02 0.02 0.01 0.01 0.01 0.01 0.00 0.00 0.00 0.00 0.00 0.00 0.00 0.00 0.00 0.00 0.00 0.00 0.00 0.00 0.00 0.00
0.01 0.01 0.02 0.02 0.01 0.01 0.01 0.02 0.02 0.01 0.01 0.01 0.03 0.04 0.05 0.05 0.07 0.09 0.09 0.06 0.05 0.05 0.03 0.02 0.01 0.01 0.00 0.00 0.01 0.01 0.00 0.00 0.00 0.00 0.00 0.00 0.00 0.00 0.00 0.00 0.00 0.00 0.00 0.00
0.01 0.01 0.01 0.02 0.01 0.02 0.02 0.02 0.02 0.01 0.01 0.01 0.02 0.04 0.06 0.07 0.08 0.10 0.09 0.05 0.04 0.03 0.02 0.01 0.01 0.01 0.01 0.01 0.01 0.02 0.01 0.00 0.00 0.01 0.01 0.00 0.00 0.00 0.00 0.00 0.00 0.00 0.00 0.00
0.01 0.01 0.01 0.01 0.01 0.01 0.01 0.01 0.01 0.00 0.00 0.01 0.01 0.02 0.04 0.04 0.06 0.08 0.10 0.08 0.05 0.04 0.02 0.02 0.01 0.01 0.01 0.00 0.01 0.01 0.01 0.01 0.01 0.01 0.00 0.00 0.00 0.00 0.00 0.00 0.00 0.00 0.00 0.00
0.00 0.00 0.00 0.00 0.00 0.00 0.00 0.00 0.00 0.00 0.00 0.00 0.01 0.02 0.03 0.03 0.04 0.06 0.08 0.08 0.06 0.04 0.03 0.02 0.02 0.01 0.01 0.00 0.00 0.01 0.01 0.01 0.01 0.00 0.00 0.00 0.00 0.00 0.00 0.00 0.00 0.00 0.00 0.00
0.00 0.00 0.00 0.00 0.00 0.00 0.00 0.00 0.00 0.00 0.00 0.01 0.01 0.03 0.05 0.04 0.04 0.04 0.05 0.05 0.05 0.03 0.03 0.02 0.02 0.01 0.01 0.00 0.00 0.00 0.00 0.00 0.00 0.00 0.00 0.00 0.00 0.00 0.00 0.00 0.00 0.00 0.00 0.00
0.00 0.00 0.00 0.00 0.00 0.00 0.00 0.00 0.00 0.00 0.00 0.01 0.01 0.02 0.04 0.04 0.04 0.04 0.03 0.03 0.03 0.02 0.02 0.02 0.02 0.01 0.00 0.00 0.00 0.00 0.00 0.00 0.00 0.00 0.00 0.00 0.00 0.00 0.00 0.00 0.00 0.00 0.00 0.00
0.00 0.00 0.00 0.00 0.00 0.00 0.00 0.00 0.00 0.00 0.01 0.01 0.01 0.02 0.02 0.02 0.02 0.03 0.03 0.02 0.02 0.01 0.01 0.01 0.01 0.00 0.00 0.00 0.00 0.00 0.00 0.00 0.00 0.00 0.00 0.00 0.00 0.00 0.00 0.00 0.00 0.00 0.00 0.00
0.00 0.00 0.00 0.00 0.00 0.00 0.00 0.00 0.00 0.00 0.01 0.01 0.01 0.01 0.01 0.01 0.01 0.01 0.01 0.01 0.01 0.01 0.01 0.01 0.00 0.00 0.00 0.00 0.00 0.00 0.00 0.00 0.00 0.00 0.00 0.00 0.00 0.00 0.00 0.00 0.00 0.00 0.00 0.00
0.00 0.00 0.00 0.00 0.00 0.00 0.00 0.00 0.00 0.00 0.00 0.00 0.00 0.00 0.00 0.00 0.01 0.01 0.01 0.01 0.01 0.01 0.01 0.01 0.00 0.00 0.00 0.00 0.00 0.00 0.00 0.00 0.00 0.00 0.00 0.00 0.00 0.00 0.00 0.00 0.00 0.00 0.00 0.00
0.00 0.00 0.00 0.00 0.00 0.00 0.00 0.00 0.00 0.00 0.00 0.00 0.00 0.00 0.00 0.00 0.00 0.01 0.01 0.01 0.00 0.00 0.00 0.00 0.00 0.00 0.00 0.00 0.00 0.00 0.00 0.00 0.00 0.00 0.00 0.00 0.00 0.00 0.00 0.00 0.00 0.00 0.00 0.00
0.00 0.00 0.00 0.00 0.00 0.00 0.00 0.00 0.00 0.00 0.00 0.00 0.00 0.00 0.00 0.00 0.00 0.00 0.00 0.00 0.00 0.00 0.00 0.00 0.00 0.00 0.00 0.00 0.00 0.00 0.00 0.00 0.00 0.00 0.00 0.00 0.00 0.00 0.00 0.00 0.00 0.00 0.00 0.00
0.00 0.00 0.00 0.00 0.00 0.00 0.00 0.00 0.00 0.00 0.00 0.00 0.00 0.00 0.00 0.00 0.00 0.00 0.00 0.00 0.00 0.00 0.00 0.00 0.00 0.00 0.00 0.00 0.00 0.00 0.00 0.00 0.00 0.00 0.00 0.00 0.00 0.00 0.00 0.00 0.00 0.00 0.00 0.00
0.00 0.00 0.00 0.00 0.00 0.00 0.00 0.00 0.00 0.00 0.00 0.00 0.00 0.00 0.00 0.00 0.00 0.00 0.00 0.00 0.00 0.00 0.00 0.00 0.00 0.00 0.00 0.00 0.00 0.00 0.00 0.00 0.00 0.00 0.00 0.00 0.00 0.00 0.00 0.00 0.00 0.00 0.00 0.00
0.00 0.00 0.00 0.00 0.00 0.00 0.00 0.00 0.00 0.00 0.00 0.00 0.00 0.00 0.00 0.00 0.00 0.00 0.00 0.00 0.00 0.00 0.00 0.00 0.00 0.00 0.00 0.00 0.00 0.00 0.00 0.00 0.00 0.00 0.00 0.00 0.00 0.00 0.00 0.00 0.00 0.00 0.00 0.00
0.00 0.00 0.00 0.00 0.00 0.00 0.00 0.00 0.00 0.00 0.00 0.00 0.00 0.00 0.00 0.00 0.00 0.00 0.00 0.00 0.00 0.00 0.00 0.00 0.00 0.00 0.00 0.00 0.00 0.00 0.00 0.00 0.00 0.00 0.00 0.00 0.00 0.00 0.00 0.00 0.00 0.00 0.00 0.00
0.00 0.00 0.00 0.00 0.00 0.00 0.00 0.00 0.00 0.00 0.00 0.00 0.00 0.00 0.00 0.00 0.00 0.00 0.00 0.00 0.00 0.00 0.00 0.00 0.00 0.00 0.00 0.00 0.00 0.00 0.00 0.00 0.00 0.00 0.00 0.00 0.00 0.00 0.00 0.00 0.00 0.00 0.00 0.00
0.00 0.00 0.00 0.00 0.00 0.00 0.00 0.00 0.00 0.00 0.00 0.00 0.00 0.00 0.00 0.00 0.00 0.00 0.00 0.00 0.00 0.00 0.00 0.00 0.00 0.00 0.00 0.00 0.00 0.00 0.00 0.00 0.00 0.00 0.00 0.00 0.00 0.00 0.00 0.00 0.00 0.00 0.00 0.00
0.00 0.00 0.00 0.00 0.00 0.00 0.00 0.00 0.00 0.00 0.00 0.00 0.00 0.00 0.00 0.00 0.00 0.00 0.00 0.00 0.00 0.00 0.00 0.00 0.00 0.00 0.00 0.00 0.00 0.00 0.00 0.00 0.00 0.00 0.00 0.00 0.00 0.00 0.00 0.00 0.00 0.00 0.00 0.00
0.00 0.00 0.00 0.00 0.00 0.00 0.00 0.00 0.00 0.00 0.00 0.00 0.00 0.00 0.00 0.00 0.00 0.00 0.00 0.00 0.00 0.00 0.00 0.00 0.00 0.00 0.00 0.00 0.00 0.00 0.00 0.00 0.00 0.00 0.00 0.00 0.00 0.00 0.00 0.00 0.00 0.00 0.00 0.00
0.00 0.00 0.00 0.00 0.00 0.00 0.00 0.00 0.00 0.00 0.00 0.00 0.00 0.00 0.00 0.00 0.00 0.00 0.00 0.00 0.00 0.00 0.00 0.00 0.00 0.00 0.00 0.00 0.00 0.00 0.00 0.00 0.00 0.00 0.00 0.00 0.00 0.00 0.00 0.00 0.00 0.00 0.00 0.00
0.00 0.00 0.00 0.00 0.00 0.00 0.00 0.00 0.00 0.00 0.00 0.00 0.00 0.00 0.00 0.00 0.00 0.00 0.00 0.00 0.00 0.00 0.00 0.00 0.00 0.00 0.00 0.00 0.00 0.00 0.00 0.00 0.00 0.00 0.00 0.00 0.00 0.00 0.00 0.00 0.00 0.00 0.00 0.00
0.00 0.00 0.00 0.00 0.00 0.00 0.00 0.00 0.00 0.00 0.00 0.00 0.00 0.00 0.00 0.00 0.00 0.00 0.00 0.00 0.00 0.00 0.00 0.00 0.00 0.00 0.00 0.00 0.00 0.00 0.00 0.00 0.00 0.00 0.00 0.00 0.00 0.00 0.00 0.00 0.00 0.00 0.00 0.00
0.00 0.00 0.00 0.00 0.00 0.00 0.00 0.00 0.00 0.00 0.00 0.00 0.00 0.00 0.00 0.00 0.00 0.00 0.00 0.00 0.00 0.00 0.00 0.00 0.00 0.00 0.00 0.00 0.00 0.00 0.00 0.00 0.00 0.00 0.00 0.00 0.00 0.00 0.00 0.00 0.00 0.00 0.00 0.00
0.00 0.00 0.00 0.00 0.00 0.00 0.00 0.00 0.00 0.00 0.00 0.00 0.00 0.00 0.00 0.00 0.00 0.00 0.00 0.00 0.00 0.00 0.00 0.00 0.00 0.00 0.00 0.00 0.00 0.00 0.00 0.00 0.00 0.00 0.00 0.00 0.00 0.00 0.00 0.00 0.00 0.00 0.00 0.00
MSLP
1012.07 1012.03 1012.00 1012.00 1012.07 1012.23 1012.47 1012.80 1013.22 1013.70 1014.25 1014.84 1015.48 1016.15 1016.85 1017.57 1018.30 1019.01 1019.70 1020.33 1020.90 1021.37 1021.75 1022.03 1022.22 1022.34 1022.42 1022.47 1022.52 1022.60 1022.72 1022.89 1023.11 1023.37 1023.68 1024.01 1024.35 1024.69 1025.01 1025.30 1025.56 1025.77 1025.94 1026.05
1012.31 1012.31 1012.26 1012.20 1012.17 1012.21 1012.35 1012.60 1012.97 1013.46 1014.05 1014.73 1015.48 1016.28 1017.09 1017.90 1018.69 1019.44 1020.13 1020.76 1021.30 1021.76 1022.13 1022.42 1022.64 1022.80 1022.91 1023.00 1023.08 1023.17 1023.28 1023.43 1023.61 1023.84 1024.10 1024.40 1024.72 1025.05 1025.38 1025.68 1025.95 1026.17 1026.34 1026.45
1012.54 1012.58 1012.52 1012.42 1012.31 1012.27 1012.33 1012.52 1012.86 1013.36 1013.99 1014.74 1015.58 1016.46 1017.36 1018.24 1019.07 1019.85 1020.54 1021.16 1021.69 1022.14 1022.51 1022.82 1023.06 1023.26 1023.41 1023.53 1023.63 1023.72 1023.82 1023.94 1024.08 1024.27 1024.49 1024.76 1025.05 1025.37 1025.69 1026.00 1026.27 1026.50 1026.67 1026.77
1012.75 1012.82 1012.76 1012.64 1012.50 1012.41 1012.43 1012.59 1012.92 1013.43 1014.09 1014.89 1015.79 1016.73 1017.68 1018.60 1019.45 1020.23 1020.93 1021.54 1022.06 1022.51 1022.89 1023.22 1023.50 1023.73 1023.91 1024.06 1024.18 1024.27 1024.36 1024.45 1024.55 1024.69 1024.88 1025.10 1025.37 1025.66 1025.96 1026.26 1026.53 1026.75 1026.91 1027.01
1012.91 1012.99 1012.94 1012.82 1012.68 1012.59 1012.60 1012.77 1013.11 1013.63 1014.32 1015.15 1016.08 1017.05 1018.02 1018.95 1019.81 1020.58 1021.27 1021.87 1022.39 1022.85 1023.25 1023.60 1023.91 1024.17 1024.39 1024.57 1024.70 1024.79 1024.87 1024.93 1025.01 1025.11 1025.25 1025.44 1025.67 1025.93 1026.21 1026.48 1026.74 1026.94 1027.09 1027.17
1012.97 1013.06 1013.03 1012.93 1012.82 1012.76 1012.81 1013.01 1013.38 1013.93 1014.65 1015.49 1016.42 1017.39 1018.36 1019.27 1020.11 1020.87 1021.54 1022.13 1022.65 1023.12 1023.54 1023.92 1024.26 1024.55 1024.80 1025.00 1025.14 1025.24 1025.31 1025.36 1025.41 1025.49 1025.60 1025.75 1025.95 1026.18 1026.43 1026.68 1026.90 1027.09 1027.21 1027.28
1012.90 1012.99 1012.99 1012.94 1012.89 1012.89 1013.01 1013.26 1013.69 1014.28 1015.01 1015.86 1016.79 1017.74 1018.67 1019.55 1020.36 1021.09 1021.74 1022.31 1022.83 1023.30 1023.73 1024.13 1024.49 1024.82 1025.09 1025.30 1025.46 1025.57 1025.64 1025.69 1025.73 1025.79 1025.88 1026.02 1026.19 1026.40 1026.62 1026.84 1027.04 1027.20 1027.30 1027.35
1012.68 1012.78 1012.82 1012.84 1012.87 1012.97 1013.18 1013.52 1014.00 1014.64 1015.39 1016.24 1017.15 1018.06 1018.95 1019.78 1020.55 1021.24 1021.86 1022.41 1022.92 1023.39 1023.82 1024.23 1024.61 1024.94 1025.23 1025.46 1025.63 1025.75 1025.83 1025.88 1025.94 1026.00 1026.09 1026.22 1026.38 1026.58 1026.78 1026.98 1027.15 1027.29 1027.37 1027.40
1012.33 1012.46 1012.56 1012.66 1012.80 1013.02 1013.33 1013.76 1014.32 1015.00 1015.78 1016.62 1017.50 1018.37 1019.21 1019.99 1020.70 1021.35 1021.93 1022.46 1022.95 1023.40 1023.83 1024.24 1024.61 1024.94 1025.23 1025.47 1025.65 1025.78 1025.88 1025.95 1026.02 1026.11 1026.22 1026.36 1026.53 1026.72 1026.91 1027.10 1027.25 1027.37 1027.43 1027.44
1011.91 1012.08 1012.26 1012.47 1012.73 1013.06 1013.49 1014.03 1014.66 1015.38 1016.17 1017.00 1017.85 1018.67 1019.46 1020.19 1020.85 1021.45 1021.99 1022.49 1022.95 1023.39 1023.80 1024.18 1024.54 1024.86 1025.14 1025.37 1025.55 1025.70 1025.82 1025.92 1026.02 1026.14 1026.28 1026.44 1026.62 1026.82 1027.01 1027.19 1027.33 1027.43 1027.48 1027.47
1011.47 1011.72 1012.00 1012.32 1012.71 1013.17 1013.71 1014.33 1015.03 1015.79 1016.59 1017.40 1018.21 1018.99 1019.73 1020.40 1021.02 1021.58 1022.09 1022.55 1022.99 1023.39 1023.77 1024.13 1024.45 1024.75 1025.01 1025.22 1025.41 1025.57 1025.70 1025.83 1025.97 1026.12 1026.29 1026.49 1026.69 1026.89 1027.09 1027.26 1027.39 1027.47 1027.51 1027.49
1011.11 1011.45 1011.84 1012.29 1012.80 1013.37 1014.01 1014.71 1015.45 1016.24 1017.03 1017.83 1018.60 1019.34 1020.02 1020.65 1021.23 1021.75 1022.23 1022.66 1023.07 1023.44 1023.79 1024.11 1024.40 1024.66 1024.89 1025.09 1025.27 1025.43 1025.58 1025.74 1025.91 1026.09 1026.30 1026.51 1026.73 1026.94 1027.13 1027.29 1027.41 1027.48 1027.51 1027.49
1010.88 1011.33 1011.83 1012.39 1013.01 1013.68 1014.40 1015.15 1015.93 1016.72 1017.50 1018.27 1019.00 1019.69 1020.33 1020.93 1021.47 1021.96 1022.41 1022.82 1023.20 1023.54 1023.85 1024.14 1024.39 1024.62 1024.82 1025.00 1025.17 1025.33 1025.50 1025.68 1025.87 1026.08 1026.30 1026.53 1026.75 1026.96 1027.14 1027.29 1027.39 1027.45 1027.46 1027.44
1010.79 1011.35 1011.96 1012.63 1013.34 1014.08 1014.86 1015.64 1016.43 1017.21 1017.97 1018.70 1019.39 1020.04 1020.64 1021.20 1021.71 1022.18 1022.61 1023.00 1023.36 1023.67 1023.96 1024.21 1024.43 1024.62 1024.80 1024.96 1025.12 1025.28 1025.45 1025.64 1025.85 1026.08 1026.31 1026.54 1026.76 1026.96 1027.12 1027.25 1027.33 1027.37 1027.38 1027.36
1010.83 1011.48 1012.19 1012.94 1013.73 1014.53 1015.34 1016.13 1016.92 1017.68 1018.40 1019.09 1019.74 1020.35 1020.92 1021.44 1021.94 1022.39 1022.80 1023.18 1023.51 1023.81 1024.07 1024.29 1024.49 1024.66 1024.81 1024.96 1025.10 1025.27 1025.44 1025.64 1025.86 1026.08 1026.32 1026.54 1026.75 1026.93 1027.07 1027.18 1027.24 1027.27 1027.27 1027.25
1010.94 1011.68 1012.47 1013.29 1014.12 1014.96 1015.78 1016.58 1017.35 1018.08 1018.77 1019.42 1020.03 1020.60 1021.13 1021.64 1022.11 1022.55 1022.95 1023.31 1023.64 1023.92 1024.16 1024.36 1024.54 1024.69 1024.83 1024.96 1025.10 1025.26 1025.44 1025.64 1025.86 1026.09 1026.32 1026.53 1026.72 1026.88 1027.01 1027.09 1027.14 1027.15 1027.15 1027.13
1011.06 1011.87 1012.72 1013.59 1014.46 1015.32 1016.15 1016.94 1017.69 1018.39 1019.05 1019.66 1020.23 1020.78 1021.29 1021.77 1022.23 1022.65 1023.04 1023.40 1023.71 1023.98 1024.21 1024.40 1024.56 1024.70 1024.83 1024.95 1025.09 1025.25 1025.43 1025.63 1025.85 1026.08 1026.30 1026.50 1026.68 1026.83 1026.93 1027.00 1027.04 1027.05 1027.05 1027.04
1011.15 1012.01 1012.90 1013.80 1014.70 1015.57 1016.41 1017.20 1017.93 1018.61 1019.24 1019.82 1020.37 1020.89 1021.38 1021.85 1022.29 1022.71 1023.09 1023.44 1023.75 1024.01 1024.23 1024.41 1024.56 1024.69 1024.80 1024.93 1025.07 1025.22 1025.40 1025.60 1025.82 1026.05 1026.26 1026.46 1026.63 1026.77 1026.87 1026.93 1026.97 1026.99 1027.00 1027.01
1011.17 1012.06 1012.99 1013.92 1014.84 1015.72 1016.56 1017.34 1018.06 1018.73 1019.35 1019.92 1020.45 1020.95 1021.43 1021.89 1022.33 1022.74 1023.12 1023.46 1023.75 1024.01 1024.22 1024.39 1024.53 1024.65 1024.76 1024.88 1025.02 1025.17 1025.35 1025.55 1025.77 1025.99 1026.21 1026.41 1026.58 1026.72 1026.83 1026.90 1026.95 1026.98 1027.00 1027.03
1011.13 1012.05 1013.00 1013.95 1014.89 1015.78 1016.62 1017.40 1018.12 1018.78 1019.39 1019.96 1020.49 1020.99 1021.46 1021.92 1022.35 1022.75 1023.13 1023.46 1023.75 1024.00 1024.20 1024.36 1024.50 1024.61 1024.72 1024.84 1024.97 1025.12 1025.30 1025.50 1025.71 1025.93 1026.15 1026.36 1026.54 1026.69 1026.81 1026.90 1026.96 1027.01 1027.06 1027.11
1011.07 1012.02 1012.98 1013.94 1014.88 1015.78 1016.62 1017.40 1018.13 1018.79 1019.40 1019.96 1020.49 1020.99 1021.47 1021.92 1022.35 1022.76 1023.13 1023.46 1023.74 1023.99 1024.18 1024.34 1024.47 1024.58 1024.69 1024.80 1024.92 1025.07 1025.24 1025.43 1025.65 1025.87 1026.09 1026.30 1026.50 1026.66 1026.80 1026.91 1027.00 1027.07 1027.13 1027.20
1011.03 1011.98 1012.96 1013.92 1014.86 1015.75 1016.59 1017.37 1018.09 1018.75 1019.36 1019.93 1020.46 1020.96 1021.44 1021.89 1022.33 1022.73 1023.10 1023.43 1023.72 1023.96 1024.16 1024.32 1024.45 1024.55 1024.65 1024.76 1024.87 1025.01 1025.18 1025.37 1025.58 1025.80 1026.02 1026.24 1026.44 1026.62 1026.78 1026.91 1027.02 1027.11 1027.19 1027.27
1011.03 1011.99 1012.96 1013.91 1014.84 1015.72 1016.54 1017.31 1018.01 1018.67 1019.27 1019.84 1020.37 1020.87 1021.35 1021.81 1022.25 1022.65 1023.03 1023.36 1023.65 1023.90 1024.10 1024.27 1024.40 1024.51 1024.61 1024.71 1024.82 1024.96 1025.11 1025.29 1025.49 1025.71 1025.93 1026.15 1026.36 1026.55 1026.72 1026.87 1026.99 1027.10 1027.19 1027.27
1011.07 1012.03 1012.98 1013.92 1014.81 1015.66 1016.46 1017.20 1017.89 1018.53 1019.12 1019.67 1020.20 1020.70 1021.18 1021.64 1022.08 1022.49 1022.87 1023.21 1023.51 1023.77 1023.99 1024.16 1024.30 1024.42 1024.53 1024.63 1024.75 1024.88 1025.02 1025.19 1025.38 1025.59 1025.80 1026.02 1026.22 1026.42 1026.59 1026.75 1026.88 1026.99 1027.09 1027.18
1011.14 1012.08 1013.00 1013.90 1014.76 1015.58 1016.34 1017.04 1017.70 1018.31 1018.89 1019.43 1019.94 1020.43 1020.91 1021.37 1021.81 1022.22 1022.61 1022.97 1023.28 1023.55 1023.79 1023.98 1024.14 1024.28 1024.39 1024.51 1024.63 1024.75 1024.89 1025.05 1025.23 1025.42 1025.62 1025.82 1026.01 1026.20 1026.37 1026.53 1026.66 1026.78 1026.88 1026.96
1011.18 1012.09 1012.97 1013.83 1014.65 1015.41 1016.13 1016.80 1017.43 1018.01 1018.56 1019.08 1019.59 1020.07 1020.54 1021.00 1021.44 1021.86 1022.25 1022.62 1022.95 1023.24 1023.50 1023.71 1023.90 1024.05 1024.19 1024.31 1024.44 1024.56 1024.70 1024.85 1025.01 1025.18 1025.36 1025.54 1025.72 1025.89 1026.05 1026.20 1026.33 1026.44 1026.54 1026.63
1011.14 1012.01 1012.85 1013.66 1014.43 1015.15 1015.84 1016.47 1017.07 1017.63 1018.16 1018.66 1019.15 1019.63 1020.09 1020.55 1020.99 1021.41 1021.81 1022.19 1022.54 1022.85 1023.13 1023.37 1023.57 1023.75 1023.91 1024.05 1024.18 1024.30 1024.43 1024.57 1024.71 1024.87 1025.02 1025.18 1025.34 1025.49 1025.64 1025.77 1025.90 1026.01 1026.11 1026.20
Thickness
5633 5639 5640 5639 5638 5638 5633 5629 5621 5622 5621 5618 5613 5607 5598 5590 5583 5576 5571 5565 5561 5557 5553 5550 5548 5546 5544 5542 5541 5539 5538 5536 5534 5532 5532 5531 5529 5528 5526 5524 5522 5520 5519 5516
5633 5638 5638 5635 5635 5634 5631 5628 5623 5620 5615 5615 5609 5601 5593 5586 5579 5572 5566 5560 5554 5549 5545 5542 5539 5537 5534 5532 5530 5529 5527 5525 5523 5522 5521 5520 5518 5517 5515 5512 5510 5509 5507 5505
5623 5631 5634 5624 5630 5630 5626 5625 5621 5614 5612 5607 5600 5595 5588 5581 5575 5568 5561 5554 5547 5542 5538 5534 5531 5528 5525 5523 5521 5519 5517 5516 5514 5513 5511 5510 5509 5507 5504 5502 5500 5498 5496 5494
5618 5623 5615 5624 5633 5631 5623 5619 5619 5614 5608 5603 5596 5588 5581 5576 5570 5562 5554 5547 5540 5535 5529 5525 5523 5520 5518 5515 5513 5511 5509 5508 5506 5504 5502 5500 5499 5497 5494 5492 5491 5489 5487 5485
5611 5613 5617 5626 5629 5627 5621 5614 5613 5607 5600 5592 5585 5578 5570 5565 5561 5554 5547 5540 5533 5528 5523 5518 5515 5512 5509 5506 5504 5502 5500 5499 5497 5496 5493 5492 5490 5487 5485 5484 5482 5480 5479 5477
5613 5613 5612 5624 5632 5632 5622 5609 5608 5603 5595 5588 5583 5575 5565 5557 5551 5544 5538 5531 5525 5520 5515 5510 5507 5504 5501 5498 5496 5494 5493 5491 5490 5488 5486 5484 5481 5479 5477 5476 5475 5473 5472 5470
5615 5615 5619 5630 5632 5630 5612 5609 5607 5600 5592 5584 5578 5572 5561 5551 5544 5537 5530 5524 5518 5513 5507 5503 5500 5497 5494 5491 5489 5488 5486 5485 5483 5481 5479 5477 5474 5472 5471 5470 5468 5466 5465 5463
5614 5614 5616 5630 5629 5621 5615 5612 5605 5595 5586 5577 5569 5562 5553 5545 5537 5530 5523 5517 5512 5506 5500 5496 5493 5491 5487 5484 5483 5482 5480 5478 5476 5474 5473 5471 5468 5466 5464 5463 5461 5459 5457 5456
5621 5619 5622 5623 5623 5618 5614 5607 5598 5589 5581 5573 5565 5556 5547 5539 5531 5524 5518 5511 5505 5500 5494 5489 5487 5485 5482 5479 5478 5476 5474 5472 5470 5468 5465 5464 5461 5459 5457 5455 5454 5452 5451 5450
5623 5624 5622 5620 5617 5614 5611 5604 5596 5587 5578 5571 5561 5552 5543 5534 5526 5519 5512 5505 5499 5494 5489 5483 5481 5480 5478 5476 5474 5472 5469 5466 5463 5462 5459 5457 5455 5454 5452 5450 5448 5447 5446 5445
5623 5623 5621 5617 5613 5608 5604 5598 5590 5581 5574 5566 5558 5548 5539 5530 5522 5515 5508 5501 5495 5490 5484 5480 5478 5476 5474 5473 5471 5467 5464 5462 5459 5457 5455 5453 5451 5449 5448 5446 5445 5443 5442 5441
5631 5630 5623 5616 5609 5606 5600 5592 5585 5577 5567 5559 5554 5544 5535 5526 5518 5511 5504 5497 5491 5486 5482 5479 5476 5474 5472 5470 5468 5465 5461 5458 5456 5453 5451 5450 5448 5447 5446 5445 5444 5442 5441 5440
5642 5634 5626 5617 5609 5604 5596 5588 5581 5574 5565 5555 5547 5541 5532 5522 5514 5508 5501 5495 5489 5485 5481 5477 5475 5472 5470 5468 5466 5463 5459 5457 5454 5452 5450 5449 5447 5446 5445 5444 5443 5442 5441 5440
5643 5635 5622 5614 5606 5601 5594 5586 5577 5568 5560 5553 5545 5537 5529 5520 5512 5506 5500 5494 5490 5485 5480 5477 5474 5471 5469 5467 5464 5461 5459 5457 5454 5452 5450 5449 5447 5446 5444 5443 5443 5442 5441 5440
5641 5637 5626 5615 5605 5597 5590 5583 5574 5564 5556 5548 5541 5534 5527 5518 5511 5505 5499 5494 5489 5485 5481 5478 5475 5472 5469 5467 5464 5461 5459 5457 5455 5453 5451 5450 5448 5446 5445 5443 5442 5440 5440 5440
5636 5631 5623 5614 5604 5596 5589 5581 5573 5563 5556 5547 5540 5533 5526 5519 5511 5505 5499 5495 5490 5485 5482 5479 5476 5474 5471 5468 5465 5462 5460 5459 5457 5454 5452 5451 5449 5447 5446 5444 5442 5441 5440 5439
5637 5627 5620 5612 5605 5597 5590 5582 5575 5566 5557 5549 5541 5533 5526 5518 5511 5505 5500 5496 5492 5488 5485 5482 5479 5476 5473 5470 5467 5464 5462 5460 5459 5456 5454 5453 5451 5449 5447 5445 5443 5442 5441 5439
5650 5641 5632 5622 5612 5600 5591 5583 5576 5567 5559 5551 5543 5535 5527 5520 5513 5508 5503 5497 5493 5490 5487 5484 5481 5479 5475 5472 5469 5467 5465 5463 5460 5458 5456 5454 5452 5450 5448 5446 5445 5443 5442 5440
5644 5637 5629 5621 5613 5604 5595 5585 5577 5568 5561 5553 5545 5537 5531 5524 5518 5511 5505 5500 5497 5493 5491 5488 5485 5481 5478 5476 5473 5470 5468 5466 5463 5461 5458 5456 5454 5452 5450 5448 5446 5445 5443 5442
5641 5635 5628 5620 5612 5604 5596 5587 5579 5570 5563 5556 5548 5540 5533 5527 5521 5515 5509 5505 5502 5499 5496 5492 5488 5485 5482 5479 5477 5474 5472 5470 5467 5464 5461 5459 5457 5454 5452 5450 5449 5447 5445 5444
5641 5634 5628 5620 5612 5605 5598 5590 5582 5573 5566 5559 5552 5545 5538 5531 5526 5520 5514 5510 5507 5504 5500 5497 5493 5489 5486 5483 5481 5478 5476 5473 5471 5468 5465 5463 5460 5457 5455 5453 5452 5450 5448 5446
5641 5635 5628 5621 5613 5605 5598 5591 5584 5577 5569 5562 5556 5549 5542 5535 5530 5524 5521 5517 5515 5510 5506 5502 5498 5495 5491 5489 5486 5483 5481 5478 5475 5472 5469 5466 5464 5461 5459 5457 5455 5454 5452 5450
5643 5636 5630 5623 5615 5607 5599 5593 5587 5580 5573 5567 5560 5554 5548 5541 5536 5531 5526 5523 5520 5516 5511 5507 5504 5501 5497 5494 5491 5488 5486 5484 5481 5478 5475 5472 5469 5466 5464 5462 5460 5458 5456 5454
5642 5636 5630 5623 5616 5607 5600 5594 5589 5583 5577 5571 5566 5560 5553 5546 5540 5538 5535 5531 5526 5522 5517 5513 5510 5506 5502 5498 5496 5494 5491 5489 5487 5484 5481 5478 5475 5472 5469 5467 5465 5463 5461 5459
5643 5637 5630 5623 5616 5611 5604 5597 5590 5584 5579 5573 5568 5563 5559 5555 5550 5545 5540 5536 5532 5527 5523 5519 5515 5511 5507 5504 5501 5499 5497 5495 5492 5489 5486 5484 5481 5478 5475 5473 5471 5469 5466 5464
5642 5637 5632 5627 5622 5615 5607 5600 5593 5587 5582 5576 5571 5566 5562 5558 5554 5549 5545 5541 5536 5532 5528 5524 5520 5516 5512 5509 5507 5505 5503 5500 5497 5495 5492 5490 5487 5484 5481 5479 5477 5474 5472 5470
5640 5636 5630 5624 5619 5615 5610 5604 5598 5592 5587 5581 5576 5570 5566 5561 5557 5552 5548 5544 5540 5536 5532 5528 5525 5521 5518 5515 5512 5510 5507 5505 5503 5501 5498 5495 5493 5490 5488 5485 5483 5480 5478 5475